Location: Castiglione Fibocchi
(43.5333°N, 11.7667°E)
Time: 17:37:19
(UTC+00:00)

ADEOS II - Pass Details

Date: 15 August 2020
Orbit: 799 x 802 km, 98.5° (Epoch: 19 September)

Event Time Altitude Azimuth Distance (km) Brightness Sun altitude
Rises 02:05:24 0° 9° (N) 3,319 6.2 -20.9°
Reaches altitude 10° 02:07:47 10° 5° (N) 2,384 5.2 -20.6°
Maximum altitude 02:12:53 53° 289° (WNW) 975 2.3 -20.0°
Enters shadow 02:14:31 38° 237° (WSW) 1,198 2.5 -19.8°
